• In Hungary
  • List of Countries
  • For 7 days
  • Water Temperature
  • Satellite Maps
  • Weather Map
  • News
  • Weather Widgets
  • user-avatar
    Login

    Hourly Weather Bhubaneswar

    Today, 23 January, Tuesday

    Time Temperature Precipitation Wind Pressure Humidity
    00:00 +20°C° 0 mm 1 mps 757 mmHg 72%
    01:00 +20°C° 0 mm 1 mps 757 mmHg 74%
    02:00 +18°C° 0 mm 0 mps 756 mmHg 75%
    03:00 +17°C° 0 mm 0 mps 756 mmHg 77%
    04:00 +17°C° 0 mm 0 mps 756 mmHg 78%
    05:00 +19°C° 0 mm 1 mps 756 mmHg 80%
    06:00 +18°C° 0 mm 1 mps 756 mmHg 81%
    07:00 +20°C° 0 mm 1 mps 757 mmHg 74%
    08:00 +21°C° 0 mm 1 mps 757 mmHg 68%
    09:00 +23°C° 0 mm 1 mps 758 mmHg 61%
    10:00 +25°C° 0 mm 1 mps 757 mmHg 53%
    11:00 +27°C° 0 mm 1 mps 757 mmHg 44%
    12:00 +27°C° 0 mm 0 mps 757 mmHg 35%
    13:00 +30°C° 0 mm 1 mps 756 mmHg 33%
    14:00 +30°C° 0 mm 1 mps 756 mmHg 31%
    15:00 +31°C° 0 mm 2 mps 755 mmHg 29%
    16:00 +29°C° 0 mm 2 mps 755 mmHg 35%
    17:00 +28°C° 0 mm 3 mps 755 mmHg 41%
    18:00 +26°C° 0 mm 4 mps 754 mmHg 47%
    19:00 +25°C° 0 mm 3 mps 755 mmHg 53%
    20:00 +24°C° 0 mm 3 mps 755 mmHg 58%
    21:00 +21°C° 0 mm 3 mps 756 mmHg 64%
    22:00 +21°C° 0 mm 2 mps 756 mmHg 65%
    23:00 +21°C° 0 mm 2 mps 756 mmHg 66%

    Tomorrow, 24 January, Wednesday

    Time Temperature Precipitation Wind Pressure Humidity
    00:00 +20°C° 0 mm 2 mps 756 mmHg 68%
    01:00 +21°C° 0 mm 1 mps 755 mmHg 69%
    02:00 +21°C° 0 mm 1 mps 755 mmHg 71%
    03:00 +20°C° 0 mm 1 mps 755 mmHg 73%
    04:00 +20°C° 0 mm 1 mps 755 mmHg 75%
    05:00 +20°C° 0 mm 1 mps 755 mmHg 76%
    06:00 +20°C° 0 mm 1 mps 755 mmHg 78%
    07:00 +21°C° 0 mm 1 mps 755 mmHg 72%
    08:00 +23°C° 0 mm 1 mps 756 mmHg 66%
    09:00 +24°C° 0 mm 1 mps 756 mmHg 60%
    10:00 +27°C° 0 mm 2 mps 756 mmHg 53%
    11:00 +29°C° 0 mm 2 mps 756 mmHg 45%
    12:00 +31°C° 0 mm 2 mps 756 mmHg 38%
    13:00 +31°C° 0 mm 2 mps 755 mmHg 35%
    14:00 +33°C° 0 mm 3 mps 754 mmHg 33%
    15:00 +34°C° 0 mm 3 mps 753 mmHg 31%
    16:00 +31°C° 0 mm 3 mps 753 mmHg 37%
    17:00 +29°C° 0 mm 3 mps 753 mmHg 43%
    18:00 +27°C° 0 mm 3 mps 753 mmHg 49%
    19:00 +26°C° 0 mm 3 mps 754 mmHg 55%
    20:00 +25°C° 0 mm 3 mps 754 mmHg 62%
    21:00 +24°C° 0 mm 3 mps 755 mmHg 69%
    22:00 +22°C° 0 mm 3 mps 755 mmHg 73%
    23:00 +22°C° 0 mm 3 mps 755 mmHg 77%

    Day after tomorrow, 25 January, Thursday

    Time Temperature Precipitation Wind Pressure Humidity
    00:00 +22°C° 0 mm 3 mps 755 mmHg 81%
    01:00 +21°C° 0 mm 3 mps 755 mmHg 81%
    02:00 +21°C° 0 mm 2 mps 755 mmHg 80%
    03:00 +20°C° 0 mm 2 mps 754 mmHg 80%
    04:00 +20°C° 0 mm 2 mps 755 mmHg 74%
    05:00 +19°C° 0 mm 3 mps 755 mmHg 68%
    06:00 +19°C° 0 mm 3 mps 755 mmHg 62%
    07:00 +20°C° 0 mm 3 mps 756 mmHg 55%
    08:00 +21°C° 0 mm 3 mps 756 mmHg 48%
    09:00 +24°C° 0 mm 3 mps 757 mmHg 40%
    10:00 +25°C° 0 mm 3 mps 757 mmHg 36%
    11:00 +27°C° 0 mm 3 mps 757 mmHg 32%
    12:00 +29°C° 0 mm 3 mps 757 mmHg 27%
    13:00 +30°C° 0 mm 3 mps 756 mmHg 25%
    14:00 +31°C° 0 mm 2 mps 755 mmHg 23%
    15:00 +31°C° 0 mm 2 mps 754 mmHg 21%
    16:00 +30°C° 0 mm 2 mps 754 mmHg 26%
    17:00 +28°C° 0 mm 3 mps 754 mmHg 30%
    18:00 +27°C° 0 mm 3 mps 754 mmHg 35%
    19:00 +25°C° 0 mm 3 mps 755 mmHg 42%
    20:00 +24°C° 0 mm 2 mps 755 mmHg 49%
    21:00 +21°C° 0 mm 2 mps 756 mmHg 56%
    22:00 +22°C° 0 mm 1 mps 756 mmHg 59%
    23:00 +21°C° 0 mm 1 mps 756 mmHg 63%

    26 January, Friday

    Time Temperature Precipitation Wind Pressure Humidity
    00:00 +19°C° 0 mm 0 mps 756 mmHg 67%
    01:00 +19°C° 0 mm 0 mps 756 mmHg 68%
    02:00 +20°C° 0 mm 1 mps 755 mmHg 70%
    03:00 +20°C° 0 mm 1 mps 755 mmHg 71%
    04:00 +19°C° 0 mm 1 mps 755 mmHg 71%
    05:00 +19°C° 0 mm 1 mps 755 mmHg 71%
    06:00 +18°C° 0 mm 2 mps 755 mmHg 72%
    07:00 +19°C° 0 mm 2 mps 756 mmHg 64%
    08:00 +21°C° 0 mm 2 mps 757 mmHg 56%
    09:00 +23°C° 0 mm 2 mps 758 mmHg 48%
    10:00 +25°C° 0 mm 2 mps 758 mmHg 42%
    11:00 +27°C° 0 mm 2 mps 758 mmHg 36%
    12:00 +29°C° 0 mm 1 mps 757 mmHg 29%
    13:00 +30°C° 0 mm 1 mps 756 mmHg 27%
    14:00 +31°C° 0 mm 1 mps 755 mmHg 24%
    15:00 +31°C° 0 mm 1 mps 754 mmHg 21%
    16:00 +30°C° 0 mm 2 mps 754 mmHg 26%
    17:00 +28°C° 0 mm 2 mps 754 mmHg 31%
    18:00 +27°C° 0 mm 3 mps 754 mmHg 36%
    19:00 +25°C° 0 mm 3 mps 755 mmHg 46%
    20:00 +24°C° 0 mm 3 mps 756 mmHg 55%
    21:00 +21°C° 0 mm 2 mps 756 mmHg 64%
    22:00 +21°C° 0 mm 2 mps 756 mmHg 68%
    23:00 +21°C° 0 mm 2 mps 756 mmHg 72%

    27 January, Saturday

    Time Temperature Precipitation Wind Pressure Humidity
    00:00 +21°C° 0 mm 1 mps 756 mmHg 76%
    01:00 +21°C° 0 mm 1 mps 756 mmHg 77%
    02:00 +21°C° 0 mm 1 mps 756 mmHg 79%
    03:00 +20°C° 0 mm 1 mps 755 mmHg 80%
    04:00 +20°C° 0 mm 1 mps 756 mmHg 82%
    05:00 +20°C° 0 mm 1 mps 756 mmHg 83%
    06:00 +19°C° 0 mm 1 mps 756 mmHg 85%
    07:00 +21°C° 0 mm 1 mps 756 mmHg 78%
    08:00 +22°C° 0 mm 1 mps 757 mmHg 71%
    09:00 +23°C° 0 mm 1 mps 758 mmHg 64%
    10:00 +26°C° 0 mm 1 mps 758 mmHg 54%
    11:00 +28°C° 0 mm 1 mps 757 mmHg 45%
    12:00 +28°C° 0 mm 0 mps 757 mmHg 35%
    13:00 +31°C° 0 mm 1 mps 756 mmHg 32%
    14:00 +31°C° 0 mm 1 mps 755 mmHg 28%
    15:00 +31°C° 0 mm 2 mps 754 mmHg 24%
    16:00 +30°C° 0 mm 2 mps 754 mmHg 30%
    17:00 +28°C° 0 mm 3 mps 754 mmHg 35%
    18:00 +27°C° 0 mm 3 mps 754 mmHg 40%
    19:00 +26°C° 0 mm 3 mps 755 mmHg 48%
    20:00 +24°C° 0 mm 3 mps 756 mmHg 56%
    21:00 +23°C° 0 mm 2 mps 756 mmHg 64%
    22:00 +21°C° 0 mm 2 mps 756 mmHg 68%
    23:00 +22°C° 0 mm 1 mps 756 mmHg 72%

    28 January, Sunday

    Time Temperature Precipitation Wind Pressure Humidity
    00:00 +22°C° 0 mm 1 mps 756 mmHg 75%
    01:00 +21°C° 0 mm 1 mps 756 mmHg 77%
    02:00 +21°C° 0 mm 1 mps 756 mmHg 79%
    03:00 +19°C° 0 mm 0 mps 756 mmHg 80%
    04:00 +20°C° 0 mm 1 mps 756 mmHg 82%
    05:00 +20°C° 0 mm 1 mps 756 mmHg 83%
    06:00 +19°C° 0 mm 1 mps 756 mmHg 84%
    07:00 +21°C° 0 mm 1 mps 757 mmHg 78%
    08:00 +22°C° 0 mm 1 mps 758 mmHg 72%
    09:00 +24°C° 0 mm 1 mps 759 mmHg 65%
    10:00 +26°C° 0 mm 1 mps 758 mmHg 57%
    11:00 +28°C° 0 mm 1 mps 758 mmHg 48%
    12:00 +30°C° 0 mm 1 mps 758 mmHg 40%
    13:00 +30°C° 0 mm 1 mps 757 mmHg 36%
    14:00 +31°C° 0 mm 1 mps 756 mmHg 32%
    15:00 +31°C° 0 mm 1 mps 755 mmHg 28%
    16:00 +30°C° 0 mm 2 mps 755 mmHg 33%
    17:00 +29°C° 0 mm 2 mps 756 mmHg 37%
    18:00 +27°C° 0 mm 3 mps 756 mmHg 42%
    19:00 +26°C° 0 mm 3 mps 756 mmHg 48%
    20:00 +25°C° 0 mm 2 mps 757 mmHg 55%
    21:00 +23°C° 0 mm 2 mps 757 mmHg 62%
    22:00 +23°C° 0 mm 2 mps 757 mmHg 65%
    23:00 +21°C° 0 mm 2 mps 757 mmHg 68%
    Show more